Location: Newark
(54.2500°N, 9.1833°E)
Time: 19:18:34
(UTC+00:00)

Envisat - Visible Passes

Search period start: 11 November 2019 00:00
Search period end: 21 November 2019 00:00
Orbit: 764 x 766 km, 98.1° (Epoch: 11 November)

Date Brightness Start Highest point End Pass type
(mag) Time Alt. Az. Time Alt. Az. Time Alt. Az.
11 Nov 4.4 05:55:38 10° NNE 06:00:31 43° E 06:05:20 10° S visible
11 Nov 3.1 17:16:51 10° S 17:21:56 77° WSW 17:27:04 10° NNW visible
11 Nov 6.0 18:59:08 10° WSW 19:01:51 14° W 19:04:33 10° NW visible
12 Nov 5.6 05:19:20 10° NE 05:23:24 23° E 05:27:27 10° SE visible
12 Nov 3.0 16:40:14 10° SE 16:45:12 58° ENE 16:50:13 10° N visible
12 Nov 5.1 18:20:19 10° SSW 18:24:35 27° W 18:28:53 10° NW visible
13 Nov 6.2 04:44:00 10° ENE 04:46:06 12° E 04:48:11 10° ESE visible
13 Nov 3.7 16:04:09 10° ESE 16:08:38 33° ENE 16:13:09 10° N visible
13 Nov 3.9 17:42:36 10° S 17:47:31 49° W 17:52:29 10° NNW visible
14 Nov 4.8 05:44:27 10° NNE 05:49:09 36° E 05:53:49 10° SSE visible
14 Nov 3.0 17:05:34 10° SSE 17:10:39 88° ENE 17:15:48 10° NNW visible
14 Nov 5.7 18:47:05 10° SW 18:50:25 17° W 18:53:45 10° NW visible
15 Nov 5.9 05:08:19 10° NE 05:12:00 20° E 05:15:39 10° SE visible
15 Nov 3.2 16:29:06 10° SE 16:33:58 49° ENE 16:38:52 10° N visible
15 Nov 4.8 18:08:41 10° SSW 18:13:13 32° W 18:17:46 10° NNW visible
16 Nov 3.9 06:09:46 10° NNE 06:14:48 56° E 06:19:48 10° S visible
16 Nov 3.6 17:31:12 10° S 17:36:12 60° W 17:41:16 10° NNW visible
16 Nov 6.2 19:15:11 10° W 19:16:20 11° W 19:17:30 10° WNW visible
17 Nov 5.1 05:33:18 10° NNE 05:37:47 30° E 05:42:14 10° SSE visible
17 Nov 2.9 16:54:20 10° SSE 16:59:23 75° ENE 17:04:30 10° NNW visible
17 Nov 5.5 18:35:12 10° SW 18:38:59 21° W 18:42:48 10° NW visible
18 Nov 6.0 04:57:24 10° NE 05:00:34 16° E 05:03:43 10° SE visible
18 Nov 3.4 16:18:01 10° SE 16:22:45 41° ENE 16:27:31 10° N visible
18 Nov 4.4 17:57:07 10° SSW 18:01:51 38° W 18:06:36 10° NNW visible
19 Nov 4.3 05:58:33 10° NNE 06:03:29 47° E 06:08:22 10° S visible
19 Nov 3.2 17:19:50 10° S 17:24:54 72° WSW 17:30:01 10° NNW visible
19 Nov 6.0 19:02:29 10° WSW 19:04:52 13° W 19:07:16 10° NW visible
20 Nov 5.4 05:22:12 10° NE 05:26:24 25° E 05:30:35 10° SSE visible
20 Nov 3.0 16:43:08 10° SSE 16:48:08 62° ENE 16:53:11 10° N visible
20 Nov 5.2 18:23:26 10° SW 18:27:35 25° W 18:31:45 10° NW visible
